Terminal Aerodrome Forecast
Issued by NWS

Home | Current Version | Previous Version | Graphics & Text | Print | Product List | Glossary On
Versions: 1 2 3 4 5 6 7 8 9 10 11 12 13 14 15 16
000
FTUS43 KBIS 070500
TAFDIK
TAF
KDIK 070535Z 0706/0806 29007KT P6SM SCT080 BKN100
     FM070900 33007KT P6SM SCT080 SCT100
     FM071600 33019G29KT P6SM VCTS SCT050CB BKN080 BKN250
     FM080200 30008KT P6SM SCT060=

USA.gov is the U.S. government's official web portal to all federal, state and local government web resources and services.